Statistiken

Seite 301 von 349 |< · · [298] [299] [300] [301] [302] [303] [304] · · >|

Die neuesten Zitate

Nr. Zitat Pkte. Bew. Aufr. Mails Kom. Datum
15001 Hüte dich vor dem Pocher, Dir schadet nie der Socher. ... -0.5000 2 1717 0 0 26.08.05 00:00
15002 Sei kein Leckermaul wie Hans, der kaut' an ... -0.5000 2 1713 0 0 26.08.05 00:00
15003 Sieh dich wohl vor, Du greifst die wilde Sau am Ohr. ... -0.5000 2 1709 0 0 26.08.05 00:00
15004 Was sich zweit, das dreit sich gern. ... -0.5000 2 1694 0 0 26.08.05 00:00
15005 Spöttertor steht jedem offen. ... -0.5000 2 1694 0 0 26.08.05 00:00
15006 List gegen List. ... -0.5000 2 1659 0 0 26.08.05 00:00
15007 Viel vertun und wenig erwerben ist der Weg zum Verderben. ... -0.5000 2 1648 0 0 26.08.05 00:00
15008 Schäfer und Schinder sind Geschwisterkinder. ... -0.5000 2 1625 0 0 26.08.05 00:00
15009 Es war noch kein Feierkleid, das nicht Alltagskleid ... -0.5000 2 1611 0 0 26.08.05 00:00
15010 Biedermanns Erbe liegt in allen Landen. ... -0.5000 2 1610 0 0 26.08.05 00:00
15011 St. Urban ist auch ein Weinheld. ... -0.5000 2 1583 0 0 26.08.05 00:00
15012 Fürwitz Ist Jungfrauen wenig nütz. ... -0.5000 2 1582 0 0 26.08.05 00:00
15013 Mündken wat büt, Mündken wat gemüt. ... -0.5000 2 1574 0 0 26.08.05 00:00
15014 Es ist ein guter Gulden, der hundert erspart. ... -0.5000 2 1574 0 0 26.08.05 00:00
15015 Hungrige Flöhe Tun wehe. ... -0.5000 2 1539 0 0 26.08.05 00:00
15016 Es will nicht buttern! ... -0.5000 2 1534 0 0 26.08.05 00:00
15017 Was von Huren geboren, Ist zu huren erkoren. ... -0.5238 21 3422 0 1 26.08.05 00:00
15018 Kundschaft macht Freundschaft, Freundschaft ... -0.5263 38 6565 0 0 26.08.05 00:00
15019 Wer seinen Kindern gibt das Brot, Daß er ... -0.5313 32 7569 8 4 26.08.05 00:00
15020 Glück und Unglück Ist aller Morgen Frühstück. ... -0.5385 13 7117 0 0 26.08.05 00:00
15021 Freundes Schläge, liebe Schläge. ... -0.5385 13 3887 0 0 26.08.05 00:00
15022 Die Katze hat bald vergessen, daß sie das Licht halten muß. ... -0.5385 13 3107 0 0 26.08.05 00:00
15023 Wer mir Liebe erzeigt, der bereitet mir Sorge. ... -0.5500 20 4597 1 0 26.08.05 00:00
15024 Grüne Weihnachten, weiße Ostern. ... -0.5532 47 13944 2 18 26.08.05 00:00
15025 Männer sollen reden, Frauen schweigen. ... -0.5532 47 10342 3 49 26.08.05 00:00
15026 Ein Jahr Rente ist hundert Jahr Rente. ... -0.5545 101 6678 0 0 26.08.05 00:00
15027 Feuchte Hand bedeutet Liebe. ... -0.5714 42 6839 5 1 26.08.05 00:00
15028 Ein Engel flog durchs Zimmer. ... -0.5714 21 10760 2 0 26.08.05 00:00
15029 Erst komm ich und wieder ich und nochmals ... -0.5714 14 5100 2 2 26.08.05 00:00
15030 Soldaten im Frieden sind Öfen im Sommer. ... -0.5714 14 3697 0 0 26.08.05 00:00
15031 Aus Liebe frißt der Wolf das Schaf. ... -0.5714 7 6565 1 0 26.08.05 00:00
15032 Willfahren macht Freunde, Wahrsagen Feinde. ... -0.5714 7 5054 2 0 26.08.05 00:00
15033 Glück ist der Freunde Sommer und Ernte, Unglück ... -0.5714 7 4651 0 0 26.08.05 00:00
15034 Schick dich in die Zeit. ... -0.5714 7 4082 0 0 26.08.05 00:00
15035 Wenig reden altert die Frauen. ... -0.5714 7 3654 0 0 26.08.05 00:00
15036 Gewalt geht vor Recht (Das klagt manch armer Knecht). ... -0.5714 7 3447 0 0 26.08.05 00:00
15037 Heirat der Alten ist ein Ladschreiben an den Totengräber. ... -0.5714 7 3147 0 0 26.08.05 00:00
15038 Hast du Geld, so tritt herfür, Hast du ... -0.5714 7 3108 0 0 26.08.05 00:00
15039 Worte tun's nicht. ... -0.5714 7 3052 0 5 26.08.05 00:00
15040 Wenn die Bauern Eis sch--, dann muß es kalt sein. ... -0.5714 7 2907 1 2 26.08.05 00:00
15041 Man nimmt den Mann beim Wort und den Hund beim Schwanz. ... -0.5714 7 2877 0 4 26.08.05 00:00
15042 Gottes Freund, der Pfaffen Feind. ... -0.5714 7 2803 0 0 26.08.05 00:00
15043 Zu grober Lüge soll man pfeifen. ... -0.5714 7 2780 0 0 26.08.05 00:00
15044 Alle sieben Jahr ein Flohjahr, Alle sieben ... -0.5714 7 2764 1 0 26.08.05 00:00
15045 Ein toller Hund läuft sieben Jahr. ... -0.5714 7 2727 0 0 26.08.05 00:00
15046 Groß Herr, groß Recht, klein Knecht, klein Recht. ... -0.5714 7 2677 0 0 26.08.05 00:00
15047 Gut Land, feige Leute. ... -0.5714 7 2652 0 0 26.08.05 00:00
15048 Regenten und Wächter müssen wenig schlafen. ... -0.5714 7 2618 0 1 26.08.05 00:00
15049 Eine Schwieger und Sohnsfrau sollte man nicht ... -0.5714 7 2618 0 0 26.08.05 00:00
15050 Wer den Papst zum Vetter hat, ist bald Kardinal. ... -0.5714 7 2562 2 0 26.08.05 00:00

[Favoriten] [Punkte] [Bewertungen] [Aufrufe] [Mails] [Kommentare] [Datum]

Seite 301 von 349 |< · < · [1] [2] [3] [4] [5] [6] [7] [8] [9] [10] [11] [12] [13] [14] [15] [16] [17] [18] [19] [20] [21] [22] [23] [24] [25] [26] [27] [28] [29] [30] [31] [32] [33] [34] [35] [36] [37] [38] [39] [40] [41] [42] [43] [44] [45] [46] [47] [48] [49] [50] [51] [52] [53] [54] [55] [56] [57] [58] [59] [60] [61] [62] [63] [64] [65] [66] [67] [68] [69] [70] [71] [72] [73] [74] [75] [76] [77] [78] [79] [80] [81] [82] [83] [84] [85] [86] [87] [88] [89] [90] [91] [92] [93] [94] [95] [96] [97] [98] [99] [100] [101] [102] [103] [104] [105] [106] [107] [108] [109] [110] [111] [112] [113] [114] [115] [116] [117] [118] [119] [120] [121] [122] [123] [124] [125] [126] [127] [128] [129] [130] [131] [132] [133] [134] [135] [136] [137] [138] [139] [140] [141] [142] [143] [144] [145] [146] [147] [148] [149] [150] [151] [152] [153] [154] [155] [156] [157] [158] [159] [160] [161] [162] [163] [164] [165] [166] [167] [168] [169] [170] [171] [172] [173] [174] [175] [176] [177] [178] [179] [180] [181] [182] [183] [184] [185] [186] [187] [188] [189] [190] [191] [192] [193] [194] [195] [196] [197] [198] [199] [200] [201] [202] [203] [204] [205] [206] [207] [208] [209] [210] [211] [212] [213] [214] [215] [216] [217] [218] [219] [220] [221] [222] [223] [224] [225] [226] [227] [228] [229] [230] [231] [232] [233] [234] [235] [236] [237] [238] [239] [240] [241] [242] [243] [244] [245] [246] [247] [248] [249] [250] [251] [252] [253] [254] [255] [256] [257] [258] [259] [260] [261] [262] [263] [264] [265] [266] [267] [268] [269] [270] [271] [272] [273] [274] [275] [276] [277] [278] [279] [280] [281] [282] [283] [284] [285] [286] [287] [288] [289] [290] [291] [292] [293] [294] [295] [296] [297] [298] [299] [300] [301] [302] [303] [304] [305] [306] [307] [308] [309] [310] [311] [312] [313] [314] [315] [316] [317] [318] [319] [320] [321] [322] [323] [324] [325] [326] [327] [328] [329] [330] [331] [332] [333] [334] [335] [336] [337] [338] [339] [340] [341] [342] [343] [344] [345] [346] [347] [348] [349] · > · >|

Zuletzt gesucht